W6DSR Weather Reports


time (UTC)temp
C
wind
direction
speed
KPH
gust
KPH
rain 1hr
cm
rain 24hr
cm
rain mn
cm
humidity
%
barometer
mb
20260506103035 8 42 0.0 0.0 0.00 0.00 0.00 1 1020.7
20260506101522 7 42 0.0 3.2 0.00 0.00 0.00 1 1020.7
20260506100016 7 26 1.6 4.8 0.00 0.00 0.00 1 1020.6
20260506094512 7 28 0.0 4.8 0.00 0.00 0.00 1 1020.6
20260506093008 8 48 0.0 3.2 0.00 0.00 0.00 1 1020.6
20260506091504 8 48 0.0 3.2 0.00 0.00 0.00 1 1020.6
20260506090059 8 48 0.0 3.2 0.00 0.00 0.00 1 1020.5
20260506084556 7 48 1.6 8.0 0.00 0.00 0.00 1 1020.6
20260506083051 7 29 6.4 11.3 0.00 0.00 0.00 1 1020.6
20260506081546 7 32 6.4 9.7 0.00 0.00 0.00 1 1020.7
20260506073032 7 41 6.4 9.7 0.00 0.00 0.00 1 1020.4
20260506071529 7 49 6.4 12.9 0.00 0.00 0.00 1 1020.3
20260506061513 7 50 8.0 14.5 0.00 0.00 0.00 1 1019.8
20260506044554 8 360 12.9 19.3 0.00 0.00 0.00 1 1019.4
20260506043043 8 360 14.5 20.9 0.00 0.00 0.00 1 1019.1
20260506041538 8 11 11.3 22.5 0.00 0.00 0.00 1 1018.8
20260506040034 8 355 12.9 19.3 0.00 0.00 0.00 1 1018.7
20260506034530 8 360 17.7 24.1 0.00 0.00 0.00 1 1018.5
20260506033025 8 5 14.5 20.9 0.00 0.00 0.00 1 1018.4
20260506031521 8 355 17.7 24.1 0.00 0.00 0.00 1 1018.0
20260506030027 8 355 16.1 24.1 0.00 0.00 0.00 1 1017.9
20260506024530 8 5 12.9 22.5 0.00 0.00 0.00 1 1017.9
20260506023008 8 355 17.7 22.5 0.00 0.00 0.00 1 1017.8
20260506021502 8 344 16.1 22.5 0.00 0.00 0.00 1 1017.7
20260506020058 9 360 17.7 24.1 0.00 0.00 0.00 1 1017.6
20260506014554 10 5 12.9 24.1 0.00 0.00 0.00 1 1017.4
20260506013050 10 355 14.5 24.1 0.00 0.00 0.00 1 1017.5
20260506011544 10 17 16.1 25.7 0.00 0.00 0.00 1 1017.5
20260506010040 10 355 14.5 27.4 0.00 0.00 0.00 1 1017.4
20260506004536 11 344 12.9 24.1 0.00 0.00 0.00 1 1017.3
20260506003036 11 342 16.1 25.7 0.00 0.00 0.00 1 1017.1
20260506001532 11 355 12.9 25.7 0.00 0.00 0.00 1 1017.1
20260506000021 12 355 11.3 25.7 0.00 0.00 0.00 1 1017.2
20260505234527 12 5 11.3 25.7 0.00 0.00 0.00 1 1017.1
20260505233015 12 331 16.1 22.5 0.00 0.00 0.00 1 1017.1
20260505231509 13 5 11.3 25.7 0.00 0.00 0.00 1 1017.1
20260505230007 13 337 14.5 22.5 0.00 0.00 0.00 1 1017.1
20260505224600 13 339 1.6 19.3 0.00 0.00 0.00 1 1017.1
20260505223058 13 355 6.4 14.5 0.00 0.00 0.00 1 1017.2
20260505221550 14 347 4.8 14.5 0.00 0.00 0.00 1 1017.4
20260505220046 14 342 0.0 12.9 0.00 0.00 0.00 1 1017.5
20260505214542 13 287 0.0 14.5 0.00 0.00 0.00 1 1017.5
20260505213047 13 355 3.2 16.1 0.00 0.00 0.00 1 1017.6
20260505211532 12 319 0.0 16.1 0.00 0.00 0.00 1 1017.6
20260505210027 12 342 0.0 17.7 0.00 0.00 0.00 1 1017.7
20260505204523 11 346 3.2 14.5 0.00 0.00 0.00 1 1017.8
20260505203020 11 272 8.0 16.1 0.00 0.00 0.00 1 1017.9
20260505201515 11 308 4.8 12.9 0.00 0.00 0.00 1 1018.1
20260505200011 10 337 4.8 16.1 0.00 0.00 0.00 1 1018.1
20260505194505 10 277 4.8 14.5 0.00 0.00 0.00 1 1018.1
20260505193059 10 360 3.2 14.5 0.00 0.00 0.00 1 1018.1
20260505191611 9 360 4.8 12.9 0.00 0.00 0.00 1 1018.2
20260505190053 8 321 1.6 9.7 0.00 0.00 0.00 1 1018.1
20260505184546 8 360 4.8 12.9 0.00 0.00 0.00 1 1018.1
20260505183042 8 355 8.0 12.9 0.00 0.00 0.00 1 1018.1
20260505181537 8 32 4.8 12.9 0.00 0.00 0.00 1 1017.9
20260505180044 8 355 9.7 14.5 0.00 0.00 0.00 1 1017.8
20260505174532 8 335 6.4 16.1 0.00 0.00 0.00 1 1017.5
20260505173024 7 5 0.0 14.5 0.00 0.00 0.00 1 1017.4
20260505171519 7 360 8.0 14.5 0.00 0.00 0.00 1 1017.3
20260505170015 7 355 8.0 14.5 0.00 0.00 0.00 1 1017.3
20260505164510 7 5 8.0 17.7 0.00 0.00 0.00 1 1017.3
20260505163009 7 355 11.3 20.9 0.00 0.00 0.00 1 1017.1
20260505161601 7 360 19.3 24.1 0.00 0.00 0.00 1 1017.0
20260505153048 7 360 19.3 29.0 0.00 0.00 0.00 1 1016.7
20260505151543 7 350 22.5 29.0 0.00 0.00 0.00 1 1016.5
20260505124558 7 345 12.9 24.1 0.00 0.00 0.00 1 1015.9
20260505123058 7 350 16.1 29.0 0.00 0.00 0.00 1 1015.8
20260505121549 6 355 20.9 27.4 0.00 0.00 0.00 1 1015.6
20260505120045 6 360 19.3 25.7 0.00 0.00 0.00 1 1015.7
20260505114541 6 9 20.9 27.4 0.00 0.00 0.00 1 1015.6
20260505113039 6 355 17.7 22.5 0.00 0.00 0.00 1 1015.7
20260505111531 7 348 17.7 22.5 0.00 0.00 0.00 1 1015.7